TimeHST,TemperatureF,Dew PointF,Humidity,Sea Level PressureIn,VisibilityMPH,Wind Direction,Wind SpeedMPH,Gust SpeedMPH,PrecipitationIn,Events,Conditions,WindDirDegrees,DateUTC
12:02 AM,68.0,66.2,94,30.11,10.0,Calm,Calm,-,N/A,,Light Drizzle,0,2013-06-24 10:02:00
12:19 AM,68.0,66.2,94,30.10,10.0,Calm,Calm,-,N/A,,Mostly Cloudy,0,2013-06-24 10:19:00
12:27 AM,68.0,66.2,94,30.10,10.0,Calm,Calm,-,N/A,,Light Drizzle,0,2013-06-24 10:27:00
12:43 AM,68.0,66.2,94,30.09,10.0,Calm,Calm,-,N/A,,Mostly Cloudy,0,2013-06-24 10:43:00
12:54 AM,68.0,66.2,94,30.09,10.0,WNW,3.5,-,N/A,,Mostly Cloudy,290,2013-06-24 10:54:00
12:55 AM,68.4,66.9,95,30.09,10.0,WNW,3.5,-,0.00,,Mostly Cloudy,290,2013-06-24 10:55:00
1:03 AM,68.0,66.2,94,30.09,9.0,Calm,Calm,-,N/A,,Light Drizzle,0,2013-06-24 11:03:00
1:12 AM,68.0,66.2,94,30.09,7.0,West,3.5,-,N/A,,Light Drizzle,260,2013-06-24 11:12:00
1:24 AM,68.0,66.2,94,30.09,10.0,Calm,Calm,-,N/A,,Light Drizzle,0,2013-06-24 11:24:00
1:27 AM,68.0,66.2,94,30.09,10.0,Calm,Calm,-,N/A,,Overcast,0,2013-06-24 11:27:00
1:30 AM,68.0,66.2,94,30.09,8.0,Calm,Calm,-,N/A,Rain,Light Rain,0,2013-06-24 11:30:00
1:36 AM,68.0,66.2,94,30.09,5.0,Calm,Calm,-,N/A,Rain,Light Rain,0,2013-06-24 11:36:00
1:43 AM,68.0,66.2,94,30.09,7.0,Calm,Calm,-,N/A,,Light Drizzle,0,2013-06-24 11:43:00
1:46 AM,68.0,66.2,94,30.09,7.0,West,3.5,-,N/A,,Light Drizzle,260,2013-06-24 11:46:00
1:51 AM,68.0,66.2,94,30.09,6.0,Calm,Calm,-,N/A,,Light Drizzle,0,2013-06-24 11:51:00
1:55 AM,68.4,66.9,95,30.08,8.0,Calm,Calm,-,0.02,,Light Drizzle,0,2013-06-24 11:55:00
1:57 AM,68.0,66.2,94,30.08,9.0,WSW,3.5,-,N/A,,Light Drizzle,250,2013-06-24 11:57:00
1:58 AM,68.0,66.2,94,30.08,9.0,West,3.5,-,N/A,,Overcast,260,2013-06-24 11:58:00
2:01 AM,68.0,66.2,94,30.08,10.0,Calm,Calm,-,N/A,,Mostly Cloudy,0,2013-06-24 12:01:00
2:55 AM,68.2,66.7,95,30.07,10.0,Calm,Calm,-,0.00,,Mostly Cloudy,0,2013-06-24 12:55:00
3:55 AM,67.5,66.0,95,30.07,10.0,WNW,4.6,-,N/A,,Mostly Cloudy,300,2013-06-24 13:55:00
4:48 AM,68.0,66.2,94,30.07,10.0,Variable,3.5,-,N/A,,Light Drizzle,0,2013-06-24 14:48:00
4:55 AM,67.6,66.0,95,30.07,10.0,NW,3.5,-,0.00,,Light Drizzle,310,2013-06-24 14:55:00
5:21 AM,68.0,66.2,94,30.07,10.0,WNW,4.6,-,N/A,,Mostly Cloudy,300,2013-06-24 15:21:00
5:35 AM,68.0,66.2,94,30.08,10.0,WNW,4.6,-,N/A,,Light Drizzle,300,2013-06-24 15:35:00
5:43 AM,68.0,66.2,94,30.09,5.0,NW,4.6,-,N/A,Rain,Light Rain,320,2013-06-24 15:43:00
5:45 AM,68.0,66.2,94,30.09,5.0,NNW,5.8,-,N/A,Rain,Light Rain,330,2013-06-24 15:45:00
5:46 AM,68.0,66.2,94,30.09,5.0,NNW,6.9,-,N/A,Rain,Light Rain,330,2013-06-24 15:46:00
5:52 AM,68.0,66.2,94,30.09,9.0,NNW,5.8,-,N/A,,Light Drizzle,330,2013-06-24 15:52:00
5:55 AM,67.8,66.0,94,30.09,10.0,NNW,4.6,-,0.01,,Light Drizzle,330,2013-06-24 15:55:00
6:01 AM,68.0,66.2,94,30.09,10.0,NW,4.6,-,N/A,,Light Drizzle,320,2013-06-24 16:01:00
6:05 AM,68.0,66.2,94,30.09,10.0,NNW,3.5,-,N/A,,Scattered Clouds,330,2013-06-24 16:05:00
6:08 AM,68.0,66.2,94,30.09,10.0,NNW,3.5,-,N/A,,Scattered Clouds,330,2013-06-24 16:08:00
6:11 AM,68.0,66.2,94,30.09,10.0,NW,4.6,-,N/A,,Scattered Clouds,320,2013-06-24 16:11:00
6:14 AM,68.0,66.2,94,30.09,10.0,NW,4.6,-,N/A,,Light Drizzle,310,2013-06-24 16:14:00
6:31 AM,68.0,66.2,94,30.09,10.0,WNW,5.8,-,N/A,,Partly Cloudy,290,2013-06-24 16:31:00
6:54 AM,68.0,66.2,94,30.10,9.0,Calm,Calm,-,N/A,,Light Drizzle,0,2013-06-24 16:54:00
6:55 AM,68.0,66.6,95,30.10,8.0,Calm,Calm,-,0.00,,Light Drizzle,0,2013-06-24 16:55:00
7:13 AM,69.8,68.0,94,30.10,10.0,Calm,Calm,-,N/A,,Scattered Clouds,0,2013-06-24 17:13:00
7:55 AM,70.5,67.3,89,30.10,10.0,NE,4.6,-,0.01,,Partly Cloudy,40,2013-06-24 17:55:00
8:55 AM,73.2,67.3,82,30.10,10.0,NNE,10.4,-,N/A,,Partly Cloudy,20,2013-06-24 18:55:00
9:55 AM,74.7,64.0,69,30.10,10.0,NE,11.5,-,N/A,,Mostly Cloudy,40,2013-06-24 19:55:00
10:35 AM,73.4,66.2,78,30.10,5.0,ENE,11.5,-,N/A,Rain,Light Rain,70,2013-06-24 20:35:00
10:42 AM,71.6,66.2,83,30.11,2.5,ENE,9.2,-,N/A,Rain,Rain,70,2013-06-24 20:42:00
10:48 AM,71.6,66.2,83,30.11,1.8,East,4.6,-,N/A,Rain,Light Rain,80,2013-06-24 20:48:00
10:49 AM,71.6,66.2,83,30.11,1.8,East,4.6,-,N/A,Rain,Light Rain,90,2013-06-24 20:49:00
10:50 AM,71.6,66.2,83,30.11,2.0,East,5.8,-,N/A,Rain,Light Rain,90,2013-06-24 20:50:00
10:54 AM,71.6,66.2,83,30.11,3.0,ENE,5.8,-,N/A,Rain,Light Rain,70,2013-06-24 20:54:00
10:55 AM,71.1,66.6,86,30.11,3.0,East,4.6,-,0.03,Rain,Light Rain,80,2013-06-24 20:55:00
11:07 AM,71.6,68.0,88,30.11,10.0,ENE,10.4,-,N/A,,Overcast,70,2013-06-24 21:07:00
11:11 AM,71.6,68.0,88,30.11,10.0,NE,10.4,-,N/A,,Light Drizzle,50,2013-06-24 21:11:00
11:23 AM,71.6,68.0,88,30.11,10.0,Variable,4.6,-,N/A,,Mostly Cloudy,0,2013-06-24 21:23:00
11:31 AM,73.4,66.2,78,30.10,10.0,ENE,5.8,-,N/A,,Mostly Cloudy,60,2013-06-24 21:31:00
11:39 AM,73.4,66.2,78,30.10,10.0,NE,11.5,-,N/A,,Mostly Cloudy,50,2013-06-24 21:39:00
11:55 AM,73.9,67.3,80,30.10,10.0,ENE,8.1,-,0.00,,Overcast,60,2013-06-24 21:55:00
12:31 PM,75.2,66.2,73,30.09,6.0,ENE,10.4,17.3,N/A,Rain,Light Rain,60,2013-06-24 22:31:00
12:45 PM,73.4,66.2,78,30.09,10.0,Variable,4.6,-,N/A,,Overcast,0,2013-06-24 22:45:00
12:55 PM,73.4,67.5,82,30.09,10.0,East,5.8,-,0.01,,Mostly Cloudy,90,2013-06-24 22:55:00
1:55 PM,76.8,65.5,68,30.06,10.0,East,16.1,-,N/A,,Scattered Clouds,100,2013-06-24 23:55:00
2:55 PM,76.8,64.6,66,30.06,10.0,ENE,9.2,-,N/A,,Mostly Cloudy,70,2013-06-25 00:55:00
3:55 PM,76.6,64.8,67,30.05,10.0,NE,11.5,-,N/A,,Mostly Cloudy,40,2013-06-25 01:55:00
4:49 PM,75.2,64.4,69,30.05,9.0,ENE,11.5,-,N/A,,Light Drizzle,60,2013-06-25 02:49:00
4:54 PM,75.2,66.2,73,30.05,9.0,ENE,11.5,-,N/A,,Mostly Cloudy,60,2013-06-25 02:54:00
4:55 PM,74.8,65.5,73,30.05,9.0,ENE,10.4,-,0.00,,Mostly Cloudy,60,2013-06-25 02:55:00
5:19 PM,73.4,64.4,73,30.05,10.0,North,8.1,-,N/A,,Light Drizzle,10,2013-06-25 03:19:00
5:26 PM,73.4,64.4,73,30.06,10.0,NNW,8.1,-,N/A,Rain,Light Rain,340,2013-06-25 03:26:00
5:29 PM,73.4,64.4,73,30.06,10.0,NNW,8.1,-,N/A,Rain,Light Rain,340,2013-06-25 03:29:00
5:32 PM,71.6,64.4,78,30.06,10.0,NNW,6.9,-,N/A,Rain,Light Rain,340,2013-06-25 03:32:00
5:38 PM,71.6,66.2,83,30.06,10.0,North,4.6,-,N/A,,Light Drizzle,350,2013-06-25 03:38:00
5:49 PM,71.6,66.2,83,30.06,10.0,North,5.8,-,N/A,,Light Drizzle,360,2013-06-25 03:49:00
5:54 PM,71.6,66.2,83,30.06,10.0,North,5.8,-,N/A,,Light Drizzle,350,2013-06-25 03:54:00
5:55 PM,71.6,66.7,85,30.06,10.0,North,4.6,-,0.00,,Light Drizzle,350,2013-06-25 03:55:00
5:56 PM,71.6,66.2,83,30.06,10.0,North,4.6,-,N/A,,Light Drizzle,10,2013-06-25 03:56:00
6:07 PM,71.6,66.2,83,30.05,10.0,NNW,5.8,-,N/A,,Light Drizzle,330,2013-06-25 04:07:00
6:15 PM,71.6,66.2,83,30.06,10.0,North,6.9,-,N/A,,Light Drizzle,350,2013-06-25 04:15:00
6:17 PM,71.6,66.2,83,30.06,10.0,North,6.9,-,N/A,,Light Drizzle,350,2013-06-25 04:17:00
6:18 PM,71.6,66.2,83,30.06,10.0,North,8.1,-,N/A,,Light Drizzle,350,2013-06-25 04:18:00
6:20 PM,71.6,66.2,83,30.06,10.0,North,8.1,-,N/A,,Overcast,350,2013-06-25 04:20:00
6:24 PM,71.6,66.2,83,30.06,10.0,Variable,4.6,-,N/A,,Overcast,0,2013-06-25 04:24:00
6:33 PM,71.6,66.2,83,30.06,10.0,NE,10.4,-,N/A,,Overcast,50,2013-06-25 04:33:00
6:34 PM,71.6,66.2,83,30.06,10.0,NE,10.4,-,N/A,,Overcast,40,2013-06-25 04:34:00
6:37 PM,71.6,66.2,83,30.06,10.0,NE,8.1,-,N/A,,Overcast,50,2013-06-25 04:37:00
6:40 PM,71.6,66.2,83,30.06,10.0,NE,8.1,-,N/A,,Overcast,50,2013-06-25 04:40:00
6:42 PM,71.6,66.2,83,30.06,10.0,ENE,6.9,-,N/A,,Overcast,60,2013-06-25 04:42:00
6:45 PM,71.6,66.2,83,30.06,10.0,ENE,6.9,-,N/A,,Overcast,60,2013-06-25 04:45:00
6:47 PM,71.6,66.2,83,30.07,10.0,ENE,8.1,-,N/A,,Overcast,60,2013-06-25 04:47:00
6:55 PM,72.0,65.7,80,30.07,10.0,NE,5.8,-,0.00,,Overcast,40,2013-06-25 04:55:00
7:55 PM,71.1,63.9,78,30.07,10.0,Calm,Calm,-,N/A,,Partly Cloudy,0,2013-06-25 05:55:00
8:55 PM,70.2,64.2,81,30.08,10.0,West,4.6,-,N/A,,Mostly Cloudy,280,2013-06-25 06:55:00
9:34 PM,69.8,64.4,83,30.09,10.0,WNW,6.9,-,N/A,,Light Drizzle,290,2013-06-25 07:34:00
9:50 PM,68.0,64.4,88,30.09,10.0,WNW,5.8,-,N/A,,Mostly Cloudy,300,2013-06-25 07:50:00
9:55 PM,68.5,64.6,87,30.09,10.0,NW,4.6,-,0.00,,Mostly Cloudy,310,2013-06-25 07:55:00
10:19 PM,69.8,66.2,88,30.09,10.0,NNW,4.6,-,N/A,,Light Drizzle,340,2013-06-25 08:19:00
10:24 PM,69.8,66.2,88,30.10,10.0,NNW,6.9,-,N/A,,Mostly Cloudy,330,2013-06-25 08:24:00
10:55 PM,70.3,65.7,85,30.09,10.0,Calm,Calm,-,0.00,,Mostly Cloudy,0,2013-06-25 08:55:00
11:55 PM,69.8,66.2,88,30.08,10.0,Calm,Calm,-,N/A,,Scattered Clouds,0,2013-06-25 09:55:00